| time (UTC) | temp F | wind direction | speed knots | gust knots | rain 1hr in | rain 24hr in | rain mn in | humidity % | barometer mb |
| 20260505122031 | 60 | 249 | 0.9 | 2.6 | 0.00 | 0.00 | 0.00 | 70 | 1023.9 |
| 20260505121049 | 60 | 321 | 0.9 | 1.7 | 0.00 | 0.00 | 0.00 | 69 | 1023.9 |
| 20260505120026 | 60 | 314 | 0.0 | 1.7 | 0.00 | 0.00 | 0.00 | 69 | 1023.9 |
| 20260505115043 | 60 | 323 | 0.9 | 2.6 | 0.00 | 0.00 | 0.00 | 68 | 1023.9 |
| 20260505114020 | 61 | 339 | 0.9 | 1.7 | 0.00 | 0.00 | 0.00 | 67 | 1024.0 |
| 20260505113018 | 61 | 324 | 0.9 | 3.5 | 0.00 | 0.00 | 0.00 | 67 | 1024.0 |
| 20260505112035 | 61 | 309 | 0.9 | 1.7 | 0.00 | 0.00 | 0.00 | 67 | 1024.0 |
| 20260505111033 | 61 | 313 | 0.9 | 1.7 | 0.00 | 0.00 | 0.00 | 67 | 1024.0 |
| 20260505110112 | 61 | 290 | 0.0 | 0.9 | 0.00 | 0.00 | 0.00 | 67 | 1023.9 |
| 20260505102102 | 61 | 334 | 0.9 | 2.6 | 0.00 | 0.00 | 0.00 | 68 | 1023.9 |
| 20260505101019 | 61 | 323 | 1.7 | 5.2 | 0.00 | 0.00 | 0.00 | 69 | 1023.8 |
| 20260505100057 | 61 | 308 | 0.9 | 3.5 | 0.00 | 0.00 | 0.00 | 69 | 1023.9 |
| 20260505095054 | 61 | 313 | 0.9 | 3.5 | 0.00 | 0.00 | 0.00 | 69 | 1023.9 |
| 20260505094052 | 61 | 319 | 0.9 | 2.6 | 0.00 | 0.00 | 0.00 | 68 | 1023.9 |
| 20260505093029 | 61 | 313 | 0.9 | 2.6 | 0.00 | 0.00 | 0.00 | 69 | 1023.9 |
| 20260505092028 | 61 | 313 | 0.9 | 2.6 | 0.00 | 0.00 | 0.00 | 69 | 1023.8 |
| 20260505091044 | 61 | 315 | 0.9 | 2.6 | 0.00 | 0.00 | 0.00 | 68 | 1023.8 |
| 20260505090022 | 61 | 314 | 0.9 | 2.6 | 0.00 | 0.00 | 0.00 | 68 | 1023.7 |
| 20260505085021 | 61 | 305 | 0.9 | 2.6 | 0.00 | 0.00 | 0.00 | 68 | 1023.7 |
| 20260505084017 | 61 | 312 | 0.9 | 2.6 | 0.00 | 0.00 | 0.00 | 68 | 1023.6 |
| 20260505083035 | 61 | 304 | 0.9 | 3.5 | 0.00 | 0.00 | 0.00 | 68 | 1023.4 |
| 20260505082112 | 61 | 311 | 0.9 | 2.6 | 0.00 | 0.00 | 0.00 | 68 | 1023.3 |
| 20260505081030 | 61 | 313 | 0.9 | 2.6 | 0.00 | 0.00 | 0.00 | 69 | 1023.2 |
| 20260505080028 | 61 | 321 | 0.9 | 1.7 | 0.00 | 0.00 | 0.00 | 69 | 1023.2 |
| 20260505075024 | 61 | 316 | 0.9 | 2.6 | 0.00 | 0.00 | 0.00 | 69 | 1023.1 |
| 20260505074021 | 61 | 311 | 0.0 | 0.9 | 0.00 | 0.00 | 0.00 | 69 | 1023.0 |
| 20260505073018 | 61 | 314 | 0.9 | 1.7 | 0.00 | 0.00 | 0.00 | 69 | 1022.9 |
| 20260505072055 | 61 | 311 | 0.0 | 1.7 | 0.00 | 0.00 | 0.00 | 70 | 1022.8 |
| 20260505071033 | 61 | 306 | 0.0 | 1.7 | 0.00 | 0.00 | 0.00 | 69 | 1022.7 |
| 20260505070050 | 61 | 306 | 0.9 | 3.5 | 0.00 | 0.00 | 0.00 | 69 | 1022.8 |
| 20260505065027 | 61 | 314 | 0.9 | 2.6 | 0.00 | 0.00 | 0.00 | 69 | 1022.7 |
| 20260505064045 | 61 | 317 | 0.9 | 2.6 | 0.00 | 0.00 | 0.00 | 69 | 1022.7 |
| 20260505063023 | 61 | 309 | 0.0 | 1.7 | 0.00 | 0.00 | 0.00 | 68 | 1022.7 |
| 20260505062020 | 61 | 310 | 0.9 | 3.5 | 0.00 | 0.00 | 0.00 | 67 | 1022.6 |
| 20260505061017 | 62 | 331 | 0.9 | 3.5 | 0.00 | 0.00 | 0.00 | 66 | 1022.5 |
| 20260505060114 | 62 | 299 | 0.9 | 2.6 | 0.00 | 0.00 | 0.00 | 66 | 1022.4 |
| 20260505055052 | 62 | 308 | 0.9 | 5.2 | 0.00 | 0.00 | 0.00 | 65 | 1022.3 |
| 20260505053046 | 62 | 320 | 0.9 | 3.5 | 0.00 | 0.00 | 0.00 | 64 | 1022.1 |
| 20260505052023 | 62 | 312 | 0.9 | 1.7 | 0.00 | 0.00 | 0.00 | 63 | 1022.0 |
| 20260505051021 | 62 | 332 | 0.0 | 3.5 | 0.00 | 0.00 | 0.00 | 62 | 1022.0 |
| 20260505041027 | 62 | 337 | 0.9 | 2.6 | 0.00 | 0.00 | 0.00 | 64 | 1021.5 |
| 20260505040024 | 62 | 169 | 0.0 | 0.9 | 0.00 | 0.00 | 0.00 | 63 | 1021.5 |
| 20260505035022 | 62 | 130 | 0.9 | 2.6 | 0.00 | 0.00 | 0.00 | 63 | 1021.5 |
| 20260505034019 | 62 | 238 | 0.9 | 2.6 | 0.00 | 0.00 | 0.00 | 63 | 1021.4 |
| 20260505033016 | 62 | 293 | 0.9 | 2.6 | 0.00 | 0.00 | 0.00 | 64 | 1021.5 |
| 20260505032035 | 62 | 345 | 0.9 | 2.6 | 0.00 | 0.00 | 0.00 | 65 | 1021.5 |
| 20260505031112 | 62 | 306 | 1.7 | 5.2 | 0.00 | 0.00 | 0.00 | 67 | 1021.5 |
| 20260505030049 | 62 | 315 | 1.7 | 5.2 | 0.00 | 0.00 | 0.00 | 67 | 1021.6 |
| 20260505025026 | 62 | 327 | 0.9 | 3.5 | 0.00 | 0.00 | 0.00 | 68 | 1021.7 |
| 20260505024045 | 61 | 287 | 1.7 | 6.1 | 0.00 | 0.00 | 0.00 | 68 | 1021.5 |
| 20260505023021 | 61 | 314 | 1.7 | 5.2 | 0.00 | 0.00 | 0.00 | 69 | 1021.6 |
| 20260505022020 | 61 | 311 | 1.7 | 3.5 | 0.00 | 0.00 | 0.00 | 69 | 1021.7 |
| 20260505021016 | 61 | 310 | 1.7 | 7.8 | 0.00 | 0.00 | 0.00 | 69 | 1021.7 |
| 20260505020035 | 61 | 324 | 1.7 | 5.2 | 0.00 | 0.00 | 0.00 | 69 | 1021.7 |
| 20260505015031 | 61 | 310 | 1.7 | 6.1 | 0.00 | 0.00 | 0.00 | 69 | 1021.7 |
| 20260505014028 | 60 | 326 | 1.7 | 5.2 | 0.00 | 0.00 | 0.00 | 69 | 1021.7 |
| 20260505013025 | 60 | 310 | 1.7 | 3.5 | 0.00 | 0.00 | 0.00 | 70 | 1021.8 |
| 20260505012023 | 60 | 292 | 1.7 | 3.5 | 0.00 | 0.00 | 0.00 | 71 | 1021.9 |
| 20260505011021 | 60 | 311 | 1.7 | 7.8 | 0.00 | 0.00 | 0.00 | 72 | 1021.9 |
| 20260505010018 | 60 | 324 | 1.7 | 5.2 | 0.00 | 0.00 | 0.00 | 72 | 1021.8 |
| 20260505005016 | 60 | 326 | 1.7 | 7.0 | 0.00 | 0.00 | 0.00 | 73 | 1021.7 |
| 20260505004033 | 59 | 300 | 1.7 | 5.2 | 0.00 | 0.00 | 0.00 | 73 | 1021.6 |
| 20260505003031 | 59 | 335 | 2.6 | 5.2 | 0.00 | 0.00 | 0.00 | 73 | 1021.5 |
| 20260505002030 | 59 | 341 | 1.7 | 5.2 | 0.00 | 0.00 | 0.00 | 74 | 1021.4 |
| 20260505001027 | 59 | 329 | 1.7 | 6.1 | 0.00 | 0.00 | 0.00 | 74 | 1021.2 |
| 20260505000024 | 59 | 321 | 1.7 | 7.0 | 0.00 | 0.00 | 0.00 | 75 | 1021.2 |
| 20260504235042 | 59 | 315 | 1.7 | 3.5 | 0.00 | 0.00 | 0.00 | 75 | 1021.1 |
| 20260504234020 | 59 | 316 | 1.7 | 6.1 | 0.00 | 0.00 | 0.00 | 76 | 1021.0 |
| 20260504233017 | 59 | 319 | 1.7 | 7.0 | 0.00 | 0.00 | 0.00 | 76 | 1021.0 |
| 20260504232035 | 59 | 324 | 1.7 | 5.2 | 0.00 | 0.00 | 0.00 | 77 | 1020.9 |
| 20260504231033 | 59 | 334 | 1.7 | 5.2 | 0.00 | 0.00 | 0.00 | 77 | 1020.8 |
| 20260504230030 | 59 | 317 | 2.6 | 6.1 | 0.00 | 0.00 | 0.00 | 78 | 1020.7 |
| 20260504225049 | 58 | 312 | 1.7 | 3.5 | 0.00 | 0.00 | 0.00 | 77 | 1020.7 |
| 20260504224025 | 58 | 324 | 0.9 | 5.2 | 0.00 | 0.00 | 0.00 | 78 | 1020.6 |
| 20260504223043 | 58 | 321 | 0.9 | 3.5 | 0.00 | 0.00 | 0.00 | 78 | 1020.3 |
| 20260504222020 | 58 | 321 | 1.7 | 9.6 | 0.00 | 0.00 | 0.00 | 78 | 1020.1 |
| 20260504221017 | 58 | 309 | 0.9 | 6.1 | 0.00 | 0.00 | 0.00 | 79 | 1019.8 |
| 20260504220035 | 58 | 308 | 1.7 | 6.1 | 0.00 | 0.00 | 0.00 | 79 | 1019.7 |
| 20260504215032 | 58 | 331 | 1.7 | 7.0 | 0.00 | 0.00 | 0.00 | 79 | 1019.4 |
| 20260504214029 | 58 | 346 | 2.6 | 8.7 | 0.00 | 0.00 | 0.00 | 80 | 1019.3 |
| 20260504213027 | 58 | 308 | 0.9 | 6.1 | 0.00 | 0.00 | 0.00 | 80 | 1019.0 |
| 20260504212025 | 58 | 313 | 0.9 | 6.1 | 0.00 | 0.00 | 0.00 | 80 | 1018.9 |
| 20260504211021 | 58 | 317 | 0.9 | 3.5 | 0.00 | 0.00 | 0.00 | 80 | 1018.7 |
| 20260504210019 | 58 | 290 | 1.7 | 5.2 | 0.00 | 0.00 | 0.00 | 80 | 1018.5 |
| 20260504205016 | 58 | 289 | 1.7 | 7.0 | 0.00 | 0.00 | 0.00 | 80 | 1018.3 |
| 20260504204034 | 58 | 336 | 1.7 | 7.8 | 0.00 | 0.00 | 0.00 | 81 | 1018.4 |
| 20260504202030 | 58 | 303 | 1.7 | 6.1 | 0.00 | 0.00 | 0.00 | 81 | 1018.0 |
| 20260504201030 | 58 | 325 | 1.7 | 7.8 | 0.00 | 0.00 | 0.00 | 81 | 1017.9 |
| 20260504200024 | 58 | 312 | 1.7 | 6.1 | 0.00 | 0.00 | 0.00 | 81 | 1017.8 |
| 20260504195023 | 58 | 306 | 2.6 | 7.8 | 0.00 | 0.00 | 0.00 | 81 | 1017.5 |
| 20260504194020 | 58 | 337 | 2.6 | 8.7 | 0.00 | 0.00 | 0.00 | 80 | 1017.5 |
| 20260504193017 | 58 | 326 | 2.6 | 8.7 | 0.00 | 0.00 | 0.00 | 80 | 1017.4 |
| 20260504192035 | 58 | 321 | 1.7 | 8.7 | 0.00 | 0.00 | 0.00 | 80 | 1017.3 |
| 20260504191032 | 58 | 320 | 1.7 | 7.0 | 0.00 | 0.00 | 0.00 | 80 | 1017.2 |
| 20260504190050 | 58 | 321 | 2.6 | 6.1 | 0.00 | 0.00 | 0.00 | 79 | 1017.1 |
| 20260504185028 | 58 | 321 | 2.6 | 7.8 | 0.00 | 0.00 | 0.00 | 79 | 1017.0 |
| 20260504184025 | 58 | 335 | 1.7 | 11.3 | 0.00 | 0.00 | 0.00 | 79 | 1017.0 |
| 20260504183023 | 58 | 291 | 1.7 | 7.0 | 0.00 | 0.00 | 0.00 | 79 | 1016.6 |
| 20260504182022 | 59 | 336 | 3.5 | 8.7 | 0.00 | 0.00 | 0.00 | 79 | 1016.5 |
| 20260504181018 | 59 | 310 | 1.7 | 7.0 | 0.00 | 0.00 | 0.00 | 78 | 1016.5 |
| 20260504180035 | 59 | 327 | 2.6 | 8.7 | 0.00 | 0.00 | 0.00 | 78 | 1016.5 |
| 20260504175033 | 59 | 329 | 2.6 | 7.0 | 0.00 | 0.00 | 0.00 | 78 | 1016.4 |
| 20260504174030 | 59 | 329 | 2.6 | 7.8 | 0.00 | 0.00 | 0.00 | 78 | 1016.3 |
| 20260504173049 | 59 | 316 | 2.6 | 9.6 | 0.00 | 0.00 | 0.00 | 77 | 1016.3 |
| 20260504172026 | 59 | 325 | 2.6 | 7.8 | 0.00 | 0.00 | 0.00 | 77 | 1016.2 |
| 20260504171025 | 59 | 324 | 1.7 | 6.1 | 0.00 | 0.00 | 0.00 | 76 | 1016.1 |
| 20260504151036 | 60 | 324 | 3.5 | 8.7 | 0.00 | 0.00 | 0.00 | 73 | 1015.3 |
| 20260504141020 | 60 | 312 | 4.3 | 7.8 | 0.00 | 0.00 | 0.00 | 73 | 1014.7 |